Arctic Village, AK

2:32 PM AKST on February 24, 2017 (GMT -0900)
Arctic Village

Weather History for PARC - January, 2014

Change the Weather History Date:

Wednesday, January 1, 2014

  Actual Average Record
Temperature  
Mean Temperature 3 °F -  
Max Temperature 15 °F -6 °F 24 °F (2016)
Min Temperature -9 °F -27 °F -53 °F (1971)
Degree Days  
Heating Degree Days 62    
Moisture  
Dew Point -16 °F    
Average Humidity 33    
Maximum Humidity 47    
Minimum Humidity 18    
Precipitation  
Precipitation 0.00 in - - ()
Sea Level Pressure  
Sea Level Pressure 29.59 in    
Wind  
Wind Speed 11 mph (NE)    
Max Wind Speed 22 mph    
Max Gust Speed 28 mph    
Visibility 10 miles    
Events      
Averages and records for this station are not official NWS values.
T = Trace of Precipitation, MM = Missing Value Source: NWS Daily Summary

Daily Weather History Graph

Daily Weather History Graph

Search for Another Location

Airport or City:

Trip Planner

Search our weather history database for the weather conditions in past years. The results will help you decide how hot, cold, wet, or windy it might be!

Date:

Astronomy

Jan. 01, 2014 Rise Set
Actual Time 12:13 PM AKST 1:18 PM AKST
Civil Twilight 10:00 AM AKST 3:32 PM AKST
Nautical Twilight 8:32 AM AKST 4:59 PM AKST
Astronomical Twilight 7:21 AM AKST 6:10 PM AKST
Moon 10:39 AM AKST (1/1) 3:52 PM AKST (1/1)
Length of Visible Light 5h 31m
Length of Day
1h 04m
New Moon, 0% of the Moon is Illuminated
Jan 1
New Moon
Jan 7
First Quarter
Jan 15
Full
Jan 23
Last Quarter
Jan 30
New

Hourly Weather History & Observations

Time (AKST) Temp. Windchill Dew Point Humidity Pressure Visibility Wind Dir Wind Speed Gust Speed Precip Events Conditions
12:16 AM -7.6 °F -24.6 °F - N/A% 29.83 in 10.0 mi ENE 9.2 mph - N/A   Clear
12:36 AM -5.8 °F -18.4 °F -25.6 °F 38% 29.83 in 10.0 mi East 5.8 mph - N/A   Clear
12:56 AM -9.4 °F -26.8 °F - N/A% 29.82 in 10.0 mi ESE 9.2 mph - N/A   Clear
1:16 AM -7.6 °F -23.4 °F - N/A% 29.82 in 10.0 mi East 8.1 mph - N/A   Clear
1:36 AM -7.6 °F -24.6 °F - N/A% 29.81 in 10.0 mi East 9.2 mph - N/A   Clear
1:56 AM -2.2 °F -19.9 °F - N/A% 29.80 in 10.0 mi ENE 11.5 mph - N/A   Clear
2:16 AM 3.2 °F -15.3 °F -29.2 °F 21% 29.78 in 10.0 mi NE 15.0 mph 23.0 mph N/A   Clear
2:36 AM 6.8 °F -10.7 °F -27.4 °F 20% 29.77 in 10.0 mi NE 15.0 mph 24.2 mph N/A   Clear
2:56 AM 8.6 °F -8.3 °F -27.4 °F 18% 29.76 in 10.0 mi NE 15.0 mph 21.9 mph N/A   Clear
3:16 AM 8.6 °F -6.3 °F -25.6 °F 20% 29.75 in 10.0 mi NE 11.5 mph 21.9 mph N/A   Clear
3:36 AM 8.6 °F -7.7 °F -25.6 °F 20% 29.74 in 10.0 mi NE 13.8 mph 20.7 mph N/A   Clear
3:56 AM 8.6 °F -7.0 °F -23.8 °F 22% 29.74 in 10.0 mi NE 12.7 mph 21.9 mph N/A   Clear
4:16 AM 1.4 °F -11.3 °F -25.6 °F 27% 29.74 in 10.0 mi East 6.9 mph - N/A   Clear
4:36 AM 1.4 °F -12.5 °F -25.6 °F 27% 29.74 in 10.0 mi East 8.1 mph - N/A   Clear
4:56 AM 6.8 °F -6.9 °F -16.6 °F 34% 29.72 in 10.0 mi NE 9.2 mph 18.4 mph N/A   Clear
5:16 AM 8.6 °F -9.5 °F -18.4 °F 28% 29.70 in 10.0 mi NNE 17.3 mph 25.3 mph N/A   Clear
5:36 AM 8.6 °F -11.4 °F -18.4 °F 28% 29.69 in 10.0 mi NNE 21.9 mph 26.5 mph N/A   Clear
5:56 AM 8.6 °F -8.3 °F -18.4 °F 28% 29.68 in 10.0 mi NNE 15.0 mph 24.2 mph N/A   Clear
6:16 AM 6.8 °F -10.0 °F -20.2 °F 28% 29.68 in 10.0 mi NE 13.8 mph 21.9 mph N/A   Clear
6:36 AM 3.2 °F -13.1 °F -20.2 °F 33% 29.67 in 10.0 mi NE 11.5 mph - N/A   Clear
6:56 AM 3.2 °F -15.3 °F -18.4 °F 36% 29.65 in 10.0 mi NE 15.0 mph 20.7 mph N/A   Clear
7:16 AM 6.8 °F -12.9 °F -16.6 °F 34% 29.63 in 10.0 mi NE 19.6 mph 26.5 mph N/A   Clear
7:36 AM 8.6 °F -8.9 °F -16.6 °F 31% 29.63 in 10.0 mi NNE 16.1 mph 27.6 mph N/A   Clear
7:56 AM 10.4 °F -6.6 °F -16.6 °F 29% 29.63 in 10.0 mi NNE 16.1 mph 25.3 mph N/A   Clear
8:16 AM 10.4 °F -4.8 °F -16.6 °F 29% 29.62 in 10.0 mi NNE 12.7 mph 24.2 mph N/A   Clear
8:36 AM 10.4 °F -6.0 °F -16.6 °F 29% 29.61 in 10.0 mi NNE 15.0 mph 25.3 mph N/A   Clear
8:56 AM 10.4 °F -7.7 °F -16.6 °F 29% 29.60 in 10.0 mi NNE 18.4 mph 24.2 mph N/A   Clear
9:16 AM 10.4 °F -6.6 °F -18.4 °F 26% 29.60 in 10.0 mi NNE 16.1 mph 24.2 mph N/A   Clear
9:36 AM 10.4 °F -7.2 °F -16.6 °F 29% 29.60 in 10.0 mi NNE 17.3 mph 23.0 mph N/A   Clear
9:56 AM 10.4 °F -6.6 °F -16.6 °F 29% 29.59 in 10.0 mi NNE 16.1 mph 23.0 mph N/A   Clear
10:16 AM 10.4 °F -5.4 °F -14.8 °F 31% 29.59 in 10.0 mi NNE 13.8 mph 25.3 mph N/A   Scattered Clouds
10:36 AM 10.4 °F -6.6 °F -14.8 °F 31% 29.58 in 10.0 mi NNE 16.1 mph 23.0 mph N/A   Mostly Cloudy
10:56 AM 12.2 °F -4.8 °F -14.8 °F 29% 29.57 in 10.0 mi NNE 17.3 mph 23.0 mph N/A   Partly Cloudy
11:16 AM 12.2 °F -2.5 °F -13.0 °F 32% 29.57 in 10.0 mi NNE 12.7 mph 23.0 mph N/A   Clear
11:36 AM 12.2 °F -3.7 °F -13.0 °F 32% 29.57 in 10.0 mi NNE 15.0 mph 21.9 mph N/A   Clear
11:56 AM 12.2 °F -3.7 °F - N/A% 29.55 in 10.0 mi NNE 15.0 mph 24.2 mph N/A   Mostly Cloudy
12:16 PM 12.2 °F -4.8 °F -13.0 °F 32% 29.54 in 10.0 mi NNE 17.3 mph 25.3 mph N/A   Scattered Clouds
12:36 PM 12.2 °F -3.7 °F -13.0 °F 32% 29.53 in 10.0 mi NNE 15.0 mph 24.2 mph N/A   Partly Cloudy
12:56 PM 12.2 °F -1.8 °F -14.8 °F 29% 29.53 in 10.0 mi NE 11.5 mph 20.7 mph N/A   Scattered Clouds
1:16 PM 12.2 °F -3.7 °F -11.2 °F 34% 29.51 in 10.0 mi NE 15.0 mph 24.2 mph N/A   Scattered Clouds
1:36 PM 12.2 °F -3.7 °F -9.4 °F 38% 29.50 in 10.0 mi ENE 15.0 mph - N/A   Clear
1:56 PM 14.0 °F 1.2 °F -11.2 °F 32% 29.50 in 10.0 mi NNE 10.4 mph - N/A   Clear
2:16 PM 14.0 °F 0.5 °F -11.2 °F 32% 29.49 in 10.0 mi ENE 11.5 mph 16.1 mph N/A   Mostly Cloudy
2:36 PM 15.8 °F 2.7 °F -11.2 °F 30% 29.49 in 10.0 mi NE 11.5 mph 19.6 mph N/A   Overcast
2:56 PM 14.0 °F 3.9 °F -11.2 °F 32% 29.50 in 10.0 mi NE 6.9 mph - N/A   Mostly Cloudy
3:16 PM 15.8 °F 6.1 °F -9.4 °F 32% 29.49 in 10.0 mi NE 6.9 mph - N/A   Mostly Cloudy
3:36 PM 14.0 °F 2.9 °F -11.2 °F 32% 29.49 in 10.0 mi NE 8.1 mph - N/A   Scattered Clouds
3:56 PM 15.8 °F 4.2 °F -13.0 °F 27% 29.49 in 10.0 mi NE 9.2 mph - N/A   Clear
4:16 PM 15.8 °F 6.1 °F -11.2 °F 30% 29.49 in 10.0 mi NE 6.9 mph 16.1 mph N/A   Mostly Cloudy
4:36 PM 14.0 °F 1.2 °F -13.0 °F 29% 29.48 in 10.0 mi NNE 10.4 mph - N/A   Partly Cloudy
4:56 PM 14.0 °F 2.0 °F - N/A% 29.46 in 10.0 mi NNE 9.2 mph - N/A   Clear
5:16 PM 12.2 °F -1.8 °F -13.0 °F 32% 29.46 in 10.0 mi NNE 11.5 mph - N/A   Partly Cloudy
5:36 PM 12.2 °F -0.2 °F -14.8 °F 29% 29.45 in 10.0 mi NE 9.2 mph - N/A   Clear
5:56 PM 8.6 °F -4.7 °F -14.8 °F 34% 29.45 in 10.0 mi NE 9.2 mph - N/A   Clear
6:16 PM 5.0 °F -9.1 °F -14.8 °F 40% 29.46 in 10.0 mi NE 9.2 mph - N/A   Clear
6:36 PM 3.2 °F -12.2 °F -14.8 °F 43% 29.47 in 10.0 mi NE 10.4 mph - N/A   Clear
6:56 PM 5.0 °F -9.1 °F -14.8 °F 40% 29.47 in 10.0 mi North 9.2 mph - N/A   Clear
7:16 PM 3.2 °F -11.3 °F -14.8 °F 43% 29.47 in 10.0 mi NE 9.2 mph - N/A   Clear
7:36 PM 3.2 °F -11.3 °F -14.8 °F 43% 29.46 in 10.0 mi NE 9.2 mph - N/A   Clear
7:56 PM 3.2 °F -10.3 °F -14.8 °F 43% 29.47 in 10.0 mi NE 8.1 mph - N/A   Clear
8:16 PM 3.2 °F -10.3 °F -16.6 °F 39% 29.47 in 10.0 mi NE 8.1 mph - N/A   Clear
8:36 PM 3.2 °F -7.8 °F -14.8 °F 43% 29.48 in 10.0 mi NE 5.8 mph - N/A   Clear
8:56 PM 3.2 °F -10.3 °F -14.8 °F 43% 29.49 in 10.0 mi NE 8.1 mph - N/A   Scattered Clouds
9:16 PM 3.2 °F -9.1 °F -16.6 °F 39% 29.49 in 10.0 mi NE 6.9 mph - N/A   Partly Cloudy
9:36 PM 3.2 °F -9.1 °F -14.8 °F 43% 29.49 in 10.0 mi ENE 6.9 mph - N/A   Clear
9:56 PM 3.2 °F -10.3 °F -14.8 °F 43% 29.51 in 10.0 mi ENE 8.1 mph - N/A   Clear
10:16 PM 3.2 °F -7.8 °F -16.6 °F 39% 29.51 in 10.0 mi NE 5.8 mph - N/A   Clear
10:36 PM 3.2 °F - -14.8 °F 43% 29.52 in 10.0 mi Calm Calm - N/A   Clear
10:56 PM 3.2 °F - -13.0 °F 47% 29.52 in 10.0 mi Calm Calm - N/A   Clear
11:16 PM 3.2 °F - -14.8 °F 43% 29.53 in 10.0 mi Calm Calm - N/A   Clear
11:36 PM 3.2 °F - -14.8 °F 43% 29.54 in 10.0 mi Calm Calm - N/A   Mostly Cloudy
11:56 PM 1.4 °F - -20.2 °F 36% 29.55 in 10.0 mi Calm Calm - N/A   Partly Cloudy